Location: Apeadero de Los Molinos-Guadarrama
(40.7091°N, 4.0689°W)
Time: 04:01:01
(UTC+00:00)

ISS - Pass Details

Date: 27 September 2021
Orbit: 417 x 423 km, 51.6° (Epoch: 20 October)

Event Time Altitude Azimuth Distance (km) Brightness Sun altitude
Rises 19:44:36 0° 310° (NW) 2,365 1.2 -19.6°
Reaches altitude 10° 19:47:21 10° 334° (NNW) 1,502 -0.4 -20.1°
Maximum altitude 19:49:27 15° 12° (NNE) 1,215 -1.4 -20.5°
Enters shadow 19:49:34 15° 15° (NNE) 1,216 -1.4 -20.5°
